Retour au catalogue

CZ-6A DEB

ActifPO
NORAD 61811·DEBRIS·🇨🇳 China

Lancé Aug 6, 2024 depuis Taiyuan Satellite Launch Center

Loading…

Prochains Passages (prochaines 24 heures)

TLE

FraisSource: Space-Track

Époque: Sep 14, 2026, 00:07 UTC

1 61811U 24140ACB 26257.00529295  .00001469  00000-0  77898-3 0  9994
2 61811  89.0351 269.7421 0096431 300.3437  58.8238 14.10828317103776

Suivez CZ-6A DEB en temps réel avec AllMySat

Download on the App Store